Regional Weather Roundup
Issued by NWS San Angelo, TX

Home | Current Version | Previous Version | Graphics & Text | Print | Product List | Glossary Off
Versions: 1 2 3 4 5 6 7 8 9 10 11 12 13 14 15 16 17 18 19 20 21 22 23 24 25 26 27 28 29 30 31 32 33 34 35 36 37 38 39 40 41 42 43 44 45 46 47 48 49 50

000
ASUS44 KSJT 280011
RWRSJT
WEST CENTRAL TEXAS REGIONAL WEATHER ROUNDUP
NATIONAL WEATHER SERVICE SAN ANGELO TX
700 PM CDT FRI MAY 27 2016

NOTE: "FAIR" INDICATES FEW OR NO CLOUDS BELOW 12,000 FEET WITH NO
SIGNIFICANT WEATHER AND/OR OBSTRUCTIONS TO VISIBILITY.

TXZ049-054-064>066-071>073-076>078-098-099-113-114-127-128-139-140-
154-155-168>170-280100
...LOCATIONS ACROSS WEST CENTRAL TEXAS...

CITY           SKY/WX    TMP DP  RH WIND       PRES   REMARKS
SAN ANGELO     SUNNY     87  40  19 W9        29.71S
ABILENE        SUNNY     85  44  23 SW8       29.71S
DYESS AFB      SUNNY     87  48  25 S6        29.69S
JUNCTION       SUNNY     91  36  14 NW7       29.72R
SWEETWATER     SUNNY     87  24  10 W15G22    29.75S
BROWNWOOD      SUNNY     77  68  73 SE14      29.73S
COLEMAN        CLEAR     81  65  58 SE9       29.73S
SONORA         SUNNY     90  27  10 CALM      29.77S
OZONA          FAIR      90  28  11 S3        29.75F
BRADY          NOT AVBL
$$

TEXAS PANHANDLE/OKLAHOMA PANHANDLE

CITY           SKY/WX    TMP DP  RH WIND       PRES   REMARKS
AMARILLO       SUNNY     76  36  23 NW7       29.77S
BORGER         SUNNY     77  36  22 W13G18    29.74F
CANADIAN       SUNNY     77  44  30 W14G23    29.70S
DALHART        LGT RAIN  69  44  40 NW13G24   29.81R
DUMAS          CLEAR     72  38  28 W12       29.78R
GUYMON         NOT AVBL
HEREFORD       CLEAR     79  32  18 N8        29.79R
PAMPA          CLEAR     76  38  24 W12       29.76S
PERRYTON       PTSUNNY   74  42  32 W23       29.71R
$$

SOUTHERN PANHANDLE/SOUTH PLAINS/ROLLING PLAINS

CITY           SKY/WX    TMP DP  RH WIND       PRES   REMARKS
LUBBOCK        MOSUNNY   83  30  14 W15G22    29.73S
SNYDER           N/A     86  34  15 W15G22    29.73F
CHILDRESS      SUNNY     86  41  20 N5        29.67S
SEMINOLE       CLEAR     84  24  10 W7        29.78S
$$

PERMIAN BASIN

CITY           SKY/WX    TMP DP  RH WIND       PRES   REMARKS
MIDLAND        SUNNY     90  14   6 W17G26    29.75S
ODESSA         SUNNY     88  12   6 W16G26    29.76F
WINK           SUNNY     88  14   6 W17G25    29.74S
$$

FAR WEST/SOUTHWEST MOUNTAINS/TRANS PECOS

CITY           SKY/WX    TMP DP  RH WIND       PRES   REMARKS
ALPINE         CLEAR     82  12   7 SW16      29.94F
DRYDEN           N/A     93  16   6 W13G23    29.72R
EL PASO        SUNNY     83  15   8 W22G28    29.84F
FORT STOCKTON  SUNNY     89  16   7 NW13G20   29.77S
GUADALUPE PASS NOT AVBL
MARFA          SUNNY     79  13   8 W15       29.93S
PECOS          CLEAR     89  15   6 W13       29.75F
$$

DALLAS/FORT WORTH METROPLEX

CITY           SKY/WX    TMP DP  RH WIND       PRES   REMARKS
DFW AIRPORT    CLOUDY    79  60  52 S16       29.71F
FTW MEACHAM    SUNNY     81  61  50 SE15      29.71S
DAL-EXECUTIVE  CLOUDY    75  62  64 S12       29.73S
GRAND PRAIRIE  SUNNY     77  61  57 S9        29.74F
ADDISON        SUNNY     79  63  57 SE13G21   29.73S
MESQUITE       CLEAR     72  64  78 SE8       29.75S
LANCASTER      MOCLDY    73  62  66 SE12      29.75F
$$

NORTH CENTRAL TEXAS

CITY           SKY/WX    TMP DP  RH WIND       PRES   REMARKS
SHRMAN/DENISON CLOUDY    73  60  64 SE10G17   29.73S
GAINESVILLE    MOSUNNY   76  65  67 S12       29.72S
BRIDGEPORT     CLEAR     79  67  67 S12       29.72S
DENTON         LGT RAIN  79  64  60 S16       29.70S
WAXAHACHIE     CLOUDY    75  64  69 S13       29.75S
GRANBURY       CLEAR     81  63  54 SE9       29.74S
$$

WESTERN NORTH TEXAS

CITY           SKY/WX    TMP DP  RH WIND       PRES   REMARKS
WICHITA FALLS  PTSUNNY   83  67  58 S18G24    29.65R
VERNON         CLEAR     89  29  11 CALM      29.65S
BRECKENRIDGE   CLEAR     82  66  60 SE14G24   29.69S
COMANCHE       SUNNY     77  67  72 SE9       29.74S
$$

CENTRAL AND SOUTH CENTRAL TEXAS

CITY           SKY/WX    TMP DP  RH WIND       PRES   REMARKS
AUSTIN/BERGSTM MOSUNNY   75  68  78 NE10      29.71S
WACO           SUNNY     75  63  66 E13       29.74S
HILLSBORO      CLOUDY    74  63  70 SE10      29.75S
TEMPLE         SUNNY     73  66  78 E9        29.74F
KILLEEN-GRAY   SUNNY     74  66  77 E9        29.73F
FORT HOOD      SUNNY     74  66  76 E9        29.72S
GEORGETOWN     SUNNY     75  64  69 E12       29.72F
LAGO VISTA     FAIR      75  67  75 E8        29.73F
SAN MARCOS     SUNNY     75  68  78 E10       29.72S
NEW BRAUNFELS  MOSUNNY   78  68  71 NE14G22   29.70R
RANDOLPH AFB   SUNNY     77  70  77 NE14      29.70R
SAN ANTONIO    MOSUNNY   80  68  66 NE12      29.70R
STINSON        SUNNY     81  68  64 NE14      29.66R
PLEASANTON     NOT AVBL
LA GRANGE        N/A     73  70  88 CALM      29.70R
GIDDINGS       NOT AVBL
$$

EAST TEXAS

CITY           SKY/WX    TMP DP  RH WIND       PRES   REMARKS
PARIS          CLOUDY    70  57  64 S8        29.75F
CLARKSVILLE    NOT AVBL
TYLER          CLOUDY    68  64  87 S12       29.74S
LONGVIEW       CLOUDY    67  65  93 S7        29.72S
PALESTINE      CLOUDY    68  66  94 SE8       29.76S
NACOGDOCHES    CLOUDY    66  64  94 SW13      29.76S
$$

TEXAS HILL COUNTRY AND EDWARDS PLATEAU

CITY           SKY/WX    TMP DP  RH WIND       PRES   REMARKS
LLANO          PTCLDY    79  68  69 E8        29.77R
HORSESHOE BAY  MOCLDY    76  68  76 SE6       29.73S
KERRVILLE      SUNNY     81  71  72 E9        29.72S
FREDERICKSBRG  CLOUDY    73  65  77 E9        29.75S
ROCKSPRINGS    CLEAR     88  37  16 W7        29.77S
HONDO          SUNNY     93  57  29 W3        29.67S
UVALDE         CLEAR     92  45  20 W5        29.67S
DEL RIO        SUNNY     96  27   8 N6        29.64F
$$

SOUTHEAST TEXAS

CITY           SKY/WX    TMP DP  RH WIND       PRES   REMARKS
COLLEGE STN    CLOUDY    67  66  97 E6        29.73R
CALDWELL       CLOUDY    68  68 100 E5        29.78R
CROCKETT       CLOUDY    68  66  94 SE10      29.77S
BRENHAM        FOG       69  69 100 E3          N/A  VSB 1/2
HUNTSVILLE     CLOUDY    68  66  93 VRB3      29.74F
CONROE         CLOUDY    67  65  93 SE8       29.77R
HOUSTON BUSH   TSTM      66  64  93 E15       29.78R
HOUSTON HOBBY  TSTM      66  65  96 SE7       29.79F FOG
PERLAND        TSTM      68  66  93 E8        29.82F FOG
WHARTON        NOT AVBL
$$

THE UPPER TEXAS COAST

CITY           SKY/WX    TMP DP  RH WIND       PRES   REMARKS
ORANGE         TSTM      66  64  92 SE6       29.91F
PORT ARTHUR    TSTM      67  67 100 S5        29.85F
GALVESTON      LGT RAIN  72  69  90 NE16      29.85R
ANGLETON       CLOUDY    82  75  79 SE12      29.77S
BAY CITY       CLOUDY    82  75  79 SE10      29.77R
$$

TEXAS COASTAL BEND, RIO GRANDE PLAINS DEEP SOUTH TEXAS

CITY           SKY/WX    TMP DP  RH WIND       PRES   REMARKS
VICTORIA       TSTM      70  66  87 N18G28    29.76R FOG
BEEVILLE       FAIR      90  81  76 SE10      29.61F
ROCKPORT       MOSUNNY   84  76  76 S17G35    29.63S
PORT ARANSAS   PTCLDY    83  78  86 S20G32    29.62F
PORT LAVACA    CLOUDY    82  77  83 SE16      29.72R
CORPUS CHRISTI MOSUNNY   86  78  77 S21G30    29.60F
KINGSVILLE NAS SUNNY     91  82  75 SE18G25   29.58F
COTULLA        MOSUNNY   97  59  28 N7        29.63S
LAREDO         SUNNY     98  57  25 NW5       29.62S
BROWNSVILLE    CLOUDY    85  75  72 S17       29.68R
PORT ISABEL    CLOUDY    88  75  65 S23G31    29.66R
HEBBRONVILLE   CLEAR    100  44  15 NW3       29.62F
MCALLEN        MOSUNNY   90  78  68 SE16G26   29.67R
WESLACO        PTSUNNY   87  76  69 S20G26    29.67R
FALFURRIAS     PTCLDY    94  76  56 S16       29.59R
EDINBURG       PTCLDY    90  76  64 S17G25    29.65R
$$




USA.gov is the U.S. government's official web portal to all federal, state and local government web resources and services.